Location: Bay Shore Mobile Home Park
(38.5762°N, 75.0841°W)
Time: 20:37:42
(UTC+00:00)

Okean 1 Rocket - Pass Details

Date: 15 November 2025
Orbit: 599 x 628 km, 82.5° (Epoch: 08 December)

Event Time Altitude Azimuth Distance (km) Brightness Sun altitude
Rises 23:39:17 0° 184° (S) 2,893 6.6 -22.0°
Reaches altitude 10° 23:41:30 10° 184° (S) 1,988 5.8 -22.4°
Maximum altitude 23:45:55 84° 96° (E) 629 2.9 -23.2°
Enters shadow 23:46:26 69° 22° (NNE) 668 3.0 -23.3°
